Tracking 19570 objects as of 22-Feb-2019
HD Live streaming from Space Station
objects crossing your sky now

GLOBALSTAR M055

Track GLOBALSTAR M055 now!
10-day predictions
GLOBALSTAR M055 is classified as:


NORAD ID: 25910
Int'l Code: 1999-049D
Perigee: 1,553.8 km
Apogee: 1,564.7 km
Inclination: 52.0 °
Period: 117.1 minutes
Semi major axis: 7930 km
RCS: 2.0613 m2 (large)
Launch date: September 22, 1999
Source: Globalstar (GLOB)
Launch site: TYURATAM MISSILE AND SPACE COMPLEX (TTMTR)
aabbcc
Your satellite tracking list
Your tracking list is empty




NASA's NSSDC Master Catalog

Two Line Element Set (TLE):
1 25910U 99049D   19052.35901119 -.00000070 +00000-0 +20780-3 0  9992
2 25910 052.0017 125.4630 0006893 022.1478 337.9671 12.29344888884448
Source of the keplerian elements: AFSPC